Regional Weather Roundup
Issued by NWS

Home | Current Version | Previous Version | Graphics & Text | Print | Product List | Glossary On
Versions: 1 2 3 4 5 6 7 8 9 10 11 12 13 14 15 16 17 18 19 20 21 22 23 24 25 26 27 28 29 30 31 32 33 34 35 36 37 38 39 40 41 42 43 44 45 46 47 48 49 50
414
ASUS43 KLSX 190757
RWRMO

WEATHER SUMMARY FOR MISSOURI
NATIONAL WEATHER SERVICE SPRINGFIELD MO
200 AM CST FRI JAN 19 2018

NOTE: "FAIR" INDICATES FEW OR NO CLOUDS BELOW 12,000 FEET WITH NO
       SIGNIFICANT WEATHER AND/OR OBSTRUCTIONS TO VISIBILITY.
       CURRENT SKY AND/OR WEATHER CONDITIONS ARE NOT AVAILABLE FOR
       CHILLICOTHE AND FARMINGTON.

MOZ001>031-035>038-043-044-053-054-190900-
...NORTHERN AND WESTERN MISSOURI...

CITY           SKY/WX    TMP DP  RH WIND       PRES   REMARKS
KANSAS CTY INT CLOUDY    34  19  54 SW15      29.98F WCI  24
KANSAS C DTWN  CLOUDY    38  18  44 SW10      30.00F
LEE`S SUMMIT   CLOUDY    34  18  52 SW18      30.01S WCI  23
ST JOSEPH      CLOUDY    35  24  64 SW13      29.96F WCI  26
CHILLICOTHE      N/A     31  20  63 S8        29.98F WCI  23

$$
MOZ066>068-077>081-088>096-101>105-190900-
...SOUTHWEST MISSOURI...

CITY           SKY/WX    TMP DP  RH WIND       PRES   REMARKS
SPRINGFIELD    CLOUDY    27  12  53 S12       30.12F WCI  17
JOPLIN         CLOUDY    33  15  47 S18       30.13F WCI  22

$$
MOZ032>034-039>042-045>050-055>058-069>072-190900-
...CENTRAL MISSOURI...

CITY           SKY/WX    TMP DP  RH WIND       PRES   REMARKS
COLUMBIA       CLOUDY    32  15  49 SW12      30.06F WCI  23
JEFFERSON CITY CLOUDY    34  15  46 SE5       30.10F WCI  30
ROLLA          CLOUDY    30  12  47 S13       30.10F WCI  20
SEDALIA        CLOUDY    34  17  50 SW16      30.06S WCI  24
WARRENSBURG    CLOUDY    32  18  55 S10       30.04F WCI  24

$$
MOZ051-052-059>065-190900-
...EAST CENTRAL MISSOURI...

CITY           SKY/WX    TMP DP  RH WIND       PRES   REMARKS
ST LOUIS INTL  CLOUDY    33  12  41 SW8       30.11F WCI  26
SPIRIT OF STL  CLOUDY    36  11  35 SW12G21   30.10F WCI  28
ST CHARLES     CLOUDY    23  14  68 SE3       30.11F

$$
MOZ072>076-082>087-097>100-106>115-190900-
...SOUTH CENTRAL AND SOUTHEAST MISSOURI...

CITY           SKY/WX    TMP DP  RH WIND       PRES   REMARKS
CAPE GIRARDEAU FAIR      20  15  81 S7        30.25S WCI  11
POPLAR BLUFF   FAIR      24  18  77 SW6       30.24F WCI  17
WEST PLAINS    CLOUDY    28  12  51 SW8       30.17F WCI  20

$$



USA.gov is the U.S. government's official web portal to all federal, state and local government web resources and services.